DateTimeUTC,F1_A11,F1_S11,BsB_S11,BsG_S11,BsR_S11,BbsB_S11,BbsG_S11,BbsR_S11,BaB_A11,BaG_A11,BaR_A11,Tu_S11,T_S11,Uu_S11,U_S11,P_S11,T1_A11
2021-10-13T07:00:00Z,00000200,21000000,,,,,,,-000.26,-000.19,0000.21,16.8,24.2,,00.0,0669.6,31.0
2021-10-13T07:01:00Z,00000200,21000000,,,,,,,0000.07,0000.57,0000.15,16.8,24.2,,00.0,0669.6,30.9
2021-10-13T07:02:00Z,00000200,21000000,,,,,,,0000.04,-000.23,0000.10,16.9,24.2,,00.0,0669.7,31.0
2021-10-13T07:03:00Z,00000200,61000000,,,,,,,0000.38,0000.82,-000.07,16.9,24.2,,00.0,0669.7,31.0
2021-10-13T07:04:00Z,00000200,41000000,0000.56,0001.20,0000.29,0000.31,-000.05,0000.20,0000.54,0000.15,0000.24,17.3,24.1,,00.0,0670.6,31.0
2021-10-13T07:05:00Z,00000200,01000000,0001.20,0001.10,0000.53,0000.57,0000.27,-000.15,0000.35,-000.16,0000.09,17.4,24.1,,00.0,0670.7,31.0
2021-10-13T07:06:00Z,00000200,01000000,0001.38,0001.43,0000.55,0000.46,0000.20,0000.10,0000.21,0000.62,0000.31,17.4,24.1,,00.0,0670.7,31.0
2021-10-13T07:07:00Z,00000200,01000000,0001.18,0001.42,0000.60,0000.75,0000.24,0000.07,-000.02,-000.07,0000.09,17.3,24.1,,00.0,0670.7,30.9
2021-10-13T07:08:00Z,00000200,01000000,0000.55,0001.26,0000.65,0000.66,0000.33,-000.18,-000.07,-000.29,-000.14,17.2,24.0,,00.0,0670.7,30.9
2021-10-13T07:09:00Z,00000200,01000000,0001.13,0001.13,0000.48,0000.43,0000.02,-000.25,0000.09,0000.06,-000.05,17.2,24.0,,00.0,0670.7,30.9
2021-10-13T07:10:00Z,00000200,01000000,0000.98,0001.04,0000.48,0000.22,0000.09,0000.21,0000.36,0000.22,0000.01,17.1,23.9,,00.0,0670.7,30.9
2021-10-13T07:11:00Z,00000200,01000000,0001.83,0001.69,0000.61,0000.50,0000.31,-000.02,0000.48,0000.23,0000.53,17.0,23.9,,00.0,0670.6,30.9
2021-10-13T07:12:00Z,00000200,01000000,0002.37,0001.22,0000.64,-000.11,0000.34,0000.16,0000.08,0000.48,0000.10,17.0,23.8,,00.0,0670.7,30.9
2021-10-13T07:13:00Z,00000200,01000000,0001.28,0001.34,0000.17,0000.15,0000.05,0000.15,0000.72,0000.64,0000.39,17.0,23.8,,00.0,0670.7,30.9
2021-10-13T07:14:00Z,00000200,01000000,0001.14,0000.83,0000.08,-000.46,0000.44,-000.40,0000.24,0000.14,0000.14,17.1,23.8,,00.0,0670.7,30.9
2021-10-13T07:15:00Z,00000200,01000000,0000.83,0000.56,-000.14,0000.02,-000.06,-000.01,0000.12,0000.04,0000.31,17.1,23.8,,00.0,0670.7,30.9
2021-10-13T07:16:00Z,00000200,01000000,0000.50,0000.43,0000.24,-000.30,-000.07,-000.03,0000.62,0000.36,0000.10,17.2,23.9,,00.0,0670.8,31.0
2021-10-13T07:17:00Z,00000200,01000000,0000.87,0000.75,0000.30,0000.37,0000.34,-000.18,-000.25,0000.18,0000.08,17.2,23.9,,00.0,0670.8,30.9
2021-10-13T07:18:00Z,00000200,01000000,0001.34,0000.65,0000.20,0000.45,0000.06,0000.05,0000.21,0000.23,0000.21,17.3,23.9,,00.0,0670.8,31.0
2021-10-13T07:19:00Z,00000200,01000000,0001.02,0001.17,0000.61,0000.39,0000.34,-000.05,0000.28,0000.01,0000.23,17.4,23.9,,00.0,0670.8,31.0
2021-10-13T07:20:00Z,00000200,01000000,0001.20,0000.89,0000.08,0000.56,0000.16,0000.06,0000.36,0000.50,0000.21,17.4,24.0,,00.0,0670.8,31.0
2021-10-13T07:21:00Z,00000200,01000000,0001.60,0000.79,0000.20,0000.34,0000.32,0000.02,-000.20,-000.20,-000.16,17.5,24.0,,00.0,0670.8,31.0
2021-10-13T07:22:00Z,00000200,01000000,0000.08,0000.59,0000.49,0000.03,0000.11,-000.26,-000.06,0000.18,-000.30,17.5,24.0,,00.0,0670.8,31.0
2021-10-13T07:23:00Z,00000200,01000000,0001.25,0000.63,0000.09,0000.21,0000.23,-000.19,-000.07,-000.21,0000.16,17.5,24.1,,00.0,0670.8,31.0
2021-10-13T07:24:00Z,00000200,01000000,0001.02,0000.79,0000.28,0000.68,0000.14,-000.22,0000.36,-000.17,-000.06,17.4,24.0,,00.0,0670.7,31.0
2021-10-13T07:25:00Z,00000200,01000000,0000.23,0000.97,0000.30,-000.48,-000.21,0000.02,-000.09,0000.25,-000.11,17.4,24.0,,00.0,0670.7,31.0
2021-10-13T07:26:00Z,00000200,01000000,0000.29,0000.57,0000.30,0000.09,0000.26,0000.04,0000.28,0000.17,-000.08,17.3,24.0,,00.0,0670.7,30.9
2021-10-13T07:27:00Z,00000200,01000000,0000.36,0000.71,0000.14,0000.50,0000.19,0000.10,0000.39,0000.39,0000.66,17.2,23.9,,00.0,0670.7,30.9
2021-10-13T07:28:00Z,00000200,01000000,0000.98,0000.46,0000.54,0000.13,0000.57,0000.08,0000.38,0000.21,0000.31,17.2,23.9,,00.0,0670.7,30.9
2021-10-13T07:29:00Z,00000200,01000000,0000.27,0000.46,0000.22,0000.75,0000.41,-000.12,0000.51,0000.44,0000.05,17.2,23.9,,00.0,0670.7,30.9
2021-10-13T07:30:00Z,00000200,01000000,0000.07,0000.45,-000.08,0000.43,0000.02,0000.08,-000.04,0000.28,0000.47,17.3,23.9,,00.0,0670.7,31.0
2021-10-13T07:31:00Z,00000200,01000000,0000.24,0000.72,0000.21,0000.13,0000.21,-000.11,0000.54,0000.13,0000.24,17.4,23.9,,00.0,0670.7,31.0
2021-10-13T07:32:00Z,00000200,01000000,0000.35,0000.58,0000.00,0000.05,0000.14,-000.27,-000.20,0000.23,0000.06,17.4,24.0,,00.0,0670.7,31.0
2021-10-13T07:33:00Z,00000200,01000000,0000.76,0000.63,0000.22,0000.59,0000.23,0000.29,0000.49,0000.17,0000.06,17.5,24.0,,00.0,0670.7,31.0
2021-10-13T07:34:00Z,00000200,01000000,0000.39,0000.66,0000.34,0000.16,0000.22,0000.01,-000.13,-000.12,-000.64,17.6,24.0,,00.0,0670.8,31.0
2021-10-13T07:35:00Z,00000200,01000000,0000.71,0000.58,0000.37,-000.32,0000.09,-000.18,-000.16,-000.16,0000.59,17.6,24.1,,00.0,0670.7,31.0
2021-10-13T07:36:00Z,00000200,01000000,0001.39,0000.71,0000.10,0000.02,0000.29,0000.10,-000.10,-000.04,-000.10,17.5,24.1,,00.0,0670.7,31.0
2021-10-13T07:37:00Z,00000200,01000000,0000.10,0000.64,0000.25,0000.30,0000.16,0000.31,-000.15,-000.13,-000.40,17.5,24.0,,00.0,0670.7,31.0
2021-10-13T07:38:00Z,00000200,01000000,-000.03,0001.09,0000.19,-000.30,0000.15,0000.17,0000.11,0000.22,0000.05,17.4,24.0,,00.0,0670.7,30.9
2021-10-13T07:39:00Z,00000200,01000000,0000.07,0000.44,-000.01,0000.39,0000.28,-000.04,0000.28,-000.23,-000.06,17.3,24.0,,00.0,0670.7,30.9
2021-10-13T07:40:00Z,00000200,01000000,0000.69,0000.75,0000.47,-000.30,-000.03,0000.03,-000.13,0000.35,0000.10,17.2,24.0,,00.0,0670.7,30.9
2021-10-13T07:41:00Z,00000200,01000000,0000.93,0000.71,0000.35,0000.73,-000.11,0000.05,-000.18,-000.21,-000.03,17.2,23.9,,00.0,0670.6,30.9
2021-10-13T07:42:00Z,00000200,01000000,0000.54,0000.71,0000.13,-000.38,0000.34,0000.03,0000.54,0000.15,0000.01,17.1,23.9,,00.0,0670.6,30.9
2021-10-13T07:43:00Z,00000200,01000000,0000.82,0000.82,0000.44,0000.30,0000.27,0000.09,0000.24,0000.59,0000.30,17.1,23.9,,00.0,0670.6,30.9
2021-10-13T07:44:00Z,00000200,01000000,0001.48,0000.42,0000.17,0000.06,-000.13,0000.15,0000.26,0000.14,0000.28,17.2,23.9,,00.0,0670.7,30.9
2021-10-13T07:45:00Z,00000200,01000000,0000.62,0001.21,0000.38,0000.11,0000.28,-000.02,0000.46,0000.17,0000.32,17.2,23.9,,00.0,0670.6,30.9
2021-10-13T07:46:00Z,00000200,01000000,0002.33,0001.31,0000.42,0000.53,0000.37,-000.04,0000.16,0000.42,0000.52,17.3,23.9,,00.0,0670.7,30.9
2021-10-13T07:47:00Z,00000200,01000000,0002.14,0001.78,0000.77,0000.54,0000.23,0000.01,0000.48,0000.14,-000.00,17.4,24.0,,00.0,0670.7,31.0
2021-10-13T07:48:00Z,00000200,01000000,0001.42,0001.60,0000.77,-000.22,0000.20,-000.17,0000.32,0000.36,0000.16,17.4,24.0,,00.0,0670.7,31.0
2021-10-13T07:49:00Z,00000200,01000000,0001.98,0001.52,0000.62,0000.10,0000.18,-000.25,0000.32,0000.30,-000.01,17.5,24.0,,00.0,0670.7,31.0
2021-10-13T07:50:00Z,00000200,01000000,0001.56,0001.49,0000.81,0000.83,0000.11,-000.06,0000.15,0000.26,0000.47,17.5,24.0,,00.0,0670.7,31.0
2021-10-13T07:51:00Z,00000200,01000000,0001.74,0001.43,0000.64,0000.82,0000.35,0000.13,-000.00,-000.16,-000.29,17.5,24.0,,00.0,0670.7,31.0
2021-10-13T07:52:00Z,00000200,01000000,0001.29,0001.19,0000.59,0000.56,0000.07,0000.02,0000.42,0000.48,0000.14,17.5,24.0,,00.0,0670.6,31.0
2021-10-13T07:53:00Z,00000200,01000000,0001.92,0001.67,0000.53,-000.24,0000.64,0000.10,-000.10,-000.23,-000.20,17.4,24.0,,00.0,0670.6,30.9
2021-10-13T07:54:00Z,00000200,01000000,0002.44,0001.59,0000.70,0000.06,0000.29,-000.16,0000.15,0000.43,0000.38,17.3,24.0,,00.0,0670.6,30.9
2021-10-13T07:55:00Z,00000200,01000000,0001.53,0001.64,0000.68,0000.26,0000.52,0000.03,0000.50,0000.21,0000.02,17.3,23.9,,00.0,0670.6,30.9
2021-10-13T07:56:00Z,00000200,01000000,0001.21,0001.74,0000.61,0000.40,0000.49,0000.00,0000.36,-000.04,0000.69,17.2,23.9,,00.0,0670.6,30.9
2021-10-13T07:57:00Z,00000200,41000000,,,,,,,0000.85,0000.98,0000.39,17.2,23.9,,00.0,0670.7,30.9
2021-10-13T07:58:00Z,00000200,61000000,,,,,,,-000.18,-000.02,-000.21,16.8,24.1,,00.0,0669.6,30.9
2021-10-13T07:59:00Z,00000200,21000000,,,,,,,-000.02,-000.13,-000.16,16.8,24.2,,00.0,0669.6,30.9
